Location: Julian California
(33.0790°N, 116.6010°W)
Time: 13:21:34
(UTC-08:00)

Cosmos 1386 Rocket - Pass Details

Date: 12 July 2018
Orbit: 929 x 1007 km, 83.0° (Epoch: 08 December)

Event Time Altitude Azimuth Distance (km) Brightness Sun altitude
Rises 20:15:18 0° 354° (N) 3,581 8.0 -4.2°
Reaches altitude 10° 20:17:46 10° 355° (N) 2,636 7.3 -4.6°
Maximum altitude 20:23:47 87° 84° (E) 939 4.5 -5.7°
Drops below altitude 10° 20:29:51 10° 175° (S) 2,650 6.4 -6.8°
Sets 20:32:20 0° 175° (S) 3,602 7.1 -7.2°
